Cahokia, IL

2:11 AM CDT on March 23, 2017 (GMT -0500)
Saint Louis Downtown

Weather History for KCPS - July, 2012

Change the Weather History Date:

Monday, July 9, 2012

  Actual Average Record
Temperature  
Mean Temperature 82 °F -  
Max Temperature 91 °F 92 °F 100 °F (1966)
Min Temperature 73 °F 71 °F 60 °F (1963)
Cooling Degree Days 17    
Growing Degree Days 32 (Base 50)    
Moisture  
Dew Point 65 °F    
Average Humidity 60    
Maximum Humidity 91    
Minimum Humidity 35    
Precipitation  
Precipitation 0.00 in - - ()
Sea Level Pressure  
Sea Level Pressure 29.99 in    
Wind  
Wind Speed 4 mph (NE)    
Max Wind Speed 10 mph    
Max Gust Speed -    
Visibility 10 miles    
Events      
Averages and records for this station are not official NWS values.
T = Trace of Precipitation, MM = Missing Value Source: NWS Daily Summary

Daily Weather History Graph

Daily Weather History Graph

Search for Another Location

Airport or City:

Trip Planner

Search our weather history database for the weather conditions in past years. The results will help you decide how hot, cold, wet, or windy it might be!

Date:

Astronomy

Jul. 09, 2012 Rise Set
Actual Time 5:44 AM CDT 8:26 PM CDT
Civil Twilight 5:13 AM CDT 8:58 PM CDT
Nautical Twilight 4:34 AM CDT 9:37 PM CDT
Astronomical Twilight 3:50 AM CDT 10:21 PM CDT
Moon 11:48 PM CDT (7/9) 12:06 PM CDT (7/9)
Length of Visible Light 15h 44m
Length of Day
14h 42m
Waning Gibbous, 63% of the Moon is Illuminated
Jul 9
Waning Gibbous
Jul 10
Last Quarter
Jul 18
New
Jul 26
First Quarter
Aug 1
Full

Hourly Weather History & Observations

Time (CDT) Temp. Heat Index Dew Point Humidity Pressure Visibility Wind Dir Wind Speed Gust Speed Precip Events Conditions
12:53 AM 73.0 °F - 70.0 °F 90% 30.01 in 9.0 mi Calm Calm - N/A   Partly Cloudy
1:53 AM 73.9 °F - 71.1 °F 91% 30.01 in 10.0 mi NNE 3.5 mph - 0.00 in   Mostly Cloudy
2:53 AM 75.0 °F - 70.0 °F 84% 30.01 in 10.0 mi NNW 4.6 mph - N/A   Overcast
3:53 AM 75.0 °F - 71.1 °F 87% 29.99 in 9.0 mi North 3.5 mph - N/A   Clear
4:53 AM 75.0 °F - 70.0 °F 84% 29.99 in 10.0 mi North 6.9 mph - N/A   Clear
6:53 AM 75.0 °F - 66.9 °F 76% 30.01 in 10.0 mi Calm Calm - N/A   Clear
7:53 AM 75.9 °F - 64.0 °F 67% 30.01 in 10.0 mi East 6.9 mph - N/A   Clear
8:53 AM 79.0 °F - 64.9 °F 62% 30.02 in 10.0 mi ESE 3.5 mph - N/A   Partly Cloudy
9:53 AM 81.0 °F 82.7 °F 64.9 °F 58% 30.02 in 10.0 mi NE 4.6 mph - N/A   Partly Cloudy
10:53 AM 82.9 °F 85.0 °F 66.0 °F 56% 30.03 in 10.0 mi East 3.5 mph - N/A   Mostly Cloudy
12:53 PM 84.9 °F 87.1 °F 66.0 °F 53% 30.01 in 10.0 mi Variable 4.6 mph - N/A   Mostly Cloudy
1:53 PM 86.0 °F 88.2 °F 66.0 °F 51% 30.00 in 10.0 mi NNE 3.5 mph - N/A   Mostly Cloudy
2:53 PM 87.1 °F 89.2 °F 66.0 °F 49% 29.98 in 10.0 mi ENE 6.9 mph - N/A   Mostly Cloudy
4:53 PM 91.0 °F 92.6 °F 64.0 °F 41% 29.95 in 10.0 mi ESE 5.8 mph - N/A   Mostly Cloudy
5:53 PM 91.9 °F 91.8 °F 61.0 °F 35% 29.93 in 10.0 mi NNE 10.4 mph - N/A   Mostly Cloudy
6:53 PM 89.1 °F 89.3 °F 62.1 °F 40% 29.93 in 10.0 mi East 3.5 mph - N/A   Mostly Cloudy
7:53 PM 88.0 °F 88.4 °F 62.1 °F 42% 29.94 in 10.0 mi NE 9.2 mph - N/A   Mostly Cloudy
8:53 PM 84.9 °F 84.8 °F 60.1 °F 43% 29.95 in 10.0 mi NE 6.9 mph - N/A   Mostly Cloudy
9:53 PM 82.9 °F 82.8 °F 59.0 °F 44% 29.98 in 10.0 mi NE 4.6 mph - N/A   Overcast
10:53 PM 81.0 °F 81.6 °F 60.1 °F 49% 29.99 in 10.0 mi East 4.6 mph - N/A   Scattered Clouds
11:53 PM 77.0 °F - 61.0 °F 58% 29.99 in 10.0 mi Calm Calm - N/A   Clear